Amarillo, TX

11:38 AM CST on November 19, 2019 (GMT -0600)
Amarillo International

Weather History for KAMA - May, 2019

Change the Weather History Date:

Tuesday, May 21, 2019

  Actual Average Record
Temperature  
Mean Temperature 60 °F 67 °F  
Max Temperature 74 °F 81 °F 98 °F (1966)
Min Temperature 45 °F 54 °F 37 °F (1967)
Degree Days  
Heating Degree Days 5 2  
Month to date heating degree days 107 70  
Since 1 July heating degree days 4090 4158  
Cooling Degree Days 0 4  
Month to date cooling degree days 28 53  
Year to date cooling degree days 44 74  
Growing Degree Days 9 (Base 50)    
Moisture  
Dew Point 39 °F    
Average Humidity 60    
Maximum Humidity 100    
Minimum Humidity 20    
Precipitation  
Precipitation 0.00 in 0.09 in 1.78 in (1979)
Month to date precipitation 1.75 1.32  
Year to date precipitation 5.84 5.39  
Snow  
Snow 0.00 in 0.00 in T in (2007)
Month to date snowfall 0.0 0.2  
Since 1 July snowfall 8.1 17.8  
Snow Depth 0.00 in    
Sea Level Pressure  
Sea Level Pressure 29.46 in    
Wind  
Wind Speed 21 mph (West)    
Max Wind Speed 38 mph    
Max Gust Speed 52 mph    
Visibility 8 miles    
Events Fog    
T = Trace of Precipitation, MM = Missing Value Source: NWS Daily Summary

Daily Weather History Graph

Daily Weather History Graph

Search for Another Location

Airport or City:

Astronomy

May. 21, 2019 Rise Set
Actual Time 6:38 AM CDT 8:48 PM CDT
Civil Twilight 6:10 AM CDT 9:17 PM CDT
Nautical Twilight 5:35 AM CDT 9:52 PM CDT
Astronomical Twilight 4:57 AM CDT 10:30 PM CDT
Moon 11:44 PM CDT (5/21) 8:57 AM CDT (5/21)
Length of Visible Light 15h 06m
Length of Day
14h 09m
Waning Gibbous, 91% of the Moon is Illuminated
May 21
Waning Gibbous
May 26
Last Quarter
Jun 3
New
Jun 10
First Quarter
Jun 17
Full

Hourly Weather History & Observations

Time (CDT) Temp. Windchill Dew Point Humidity Pressure Visibility Wind Dir Wind Speed Gust Speed Precip Events Conditions
12:41 AM 50.0 °F - 48.9 °F 96% 29.59 in 0.5 mi NW 15.0 mph - N/A Fog Fog
12:53 AM 50.0 °F - 48.9 °F 96% 29.53 in 0.2 mi WNW 17.3 mph 24.2 mph N/A Fog Fog
1:03 AM 50.0 °F - 48.9 °F 96% 29.59 in 0.5 mi NW 16.1 mph 25.3 mph N/A Fog Fog
1:23 AM 51.1 °F - 50.0 °F 96% 29.60 in 1.0 mi WNW 20.7 mph 29.9 mph N/A   Mist
1:31 AM 51.1 °F - 50.0 °F 96% 29.61 in 1.8 mi West 17.3 mph 29.9 mph N/A   Overcast
1:38 AM 51.1 °F - 50.0 °F 96% 29.61 in 2.5 mi WNW 20.7 mph 27.6 mph N/A   Overcast
1:49 AM 51.8 °F - 50.0 °F 94% 29.60 in 5.0 mi NW 18.4 mph 27.6 mph N/A   Overcast
1:53 AM 51.1 °F - 50.0 °F 96% 29.51 in 6.0 mi NW 20.7 mph 27.6 mph N/A   Overcast
2:30 AM 51.1 °F - 50.0 °F 96% 29.61 in 10.0 mi NNW 12.7 mph - N/A   Scattered Clouds
2:43 AM 51.1 °F - 50.0 °F 96% 29.59 in 9.0 mi NNE 12.7 mph - N/A   Mostly Cloudy
2:53 AM 50.0 °F - 48.9 °F 96% 29.50 in 10.0 mi NNE 12.7 mph - N/A   Mostly Cloudy
3:06 AM 50.0 °F - 48.9 °F 96% 29.57 in 10.0 mi NE 15.0 mph - N/A   Overcast
3:15 AM 50.0 °F - 48.9 °F 96% 29.56 in 10.0 mi NE 13.8 mph - N/A   Overcast
3:22 AM 50.0 °F - 48.0 °F 93% 29.55 in 10.0 mi NE 15.0 mph - N/A   Overcast
3:53 AM 48.9 °F - 48.0 °F 97% 29.44 in 10.0 mi ENE 10.4 mph - N/A   Overcast
4:53 AM 48.9 °F - 48.0 °F 97% 29.48 in 9.0 mi South 10.4 mph - N/A   Mostly Cloudy
5:06 AM 48.9 °F - 46.9 °F 93% 29.54 in 10.0 mi SSW 9.2 mph - N/A   Mostly Cloudy
5:53 AM 46.0 °F 39.9 °F 37.0 °F 71% 29.45 in 10.0 mi SW 13.8 mph - N/A   Clear
6:53 AM 45.0 °F 37.1 °F 36.0 °F 71% 29.42 in 10.0 mi SW 19.6 mph 29.9 mph N/A   Clear
7:53 AM 46.9 °F - 35.1 °F 63% 29.43 in 10.0 mi SW 18.4 mph 26.5 mph N/A   Clear
8:53 AM 50.0 °F - 35.1 °F 57% 29.42 in 10.0 mi SW 29.9 mph 35.7 mph N/A   Clear
9:53 AM 55.0 °F - 34.0 °F 45% 29.41 in 10.0 mi WSW 28.8 mph 38.0 mph N/A   Clear
10:53 AM 59.0 °F - 34.0 °F 39% 29.38 in 10.0 mi WSW 29.9 mph 40.3 mph N/A   Clear
11:53 AM 63.0 °F - 33.1 °F 33% 29.36 in 10.0 mi WSW 27.6 mph 43.7 mph N/A   Partly Cloudy
12:53 PM 64.0 °F - 32.0 °F 30% 29.36 in 10.0 mi West 34.5 mph 47.2 mph N/A   Scattered Clouds
1:53 PM 69.1 °F - 32.0 °F 25% 29.32 in 10.0 mi WSW 29.9 mph 43.7 mph N/A   Partly Cloudy
2:53 PM 69.1 °F - 30.0 °F 23% 29.34 in 10.0 mi West 26.5 mph 40.3 mph N/A   Partly Cloudy
3:53 PM 71.1 °F - 30.9 °F 23% 29.34 in 10.0 mi WSW 28.8 mph 41.4 mph N/A   Mostly Cloudy
4:53 PM 73.0 °F - 30.0 °F 20% 29.33 in 10.0 mi WSW 28.8 mph 39.1 mph N/A   Scattered Clouds
5:53 PM 73.0 °F - 30.0 °F 20% 29.35 in 10.0 mi WSW 27.6 mph 41.4 mph N/A   Partly Cloudy
6:53 PM 71.1 °F - 28.0 °F 20% 29.37 in 10.0 mi WSW 31.1 mph 43.7 mph N/A   Clear
7:53 PM 69.1 °F - 28.0 °F 22% 29.39 in 10.0 mi WSW 25.3 mph 40.3 mph N/A   Clear
8:53 PM 64.9 °F - 28.0 °F 25% 29.44 in 10.0 mi WSW 17.3 mph 25.3 mph N/A   Clear
9:53 PM 64.0 °F - 28.9 °F 27% 29.46 in 10.0 mi WSW 15.0 mph - N/A   Clear
10:53 PM 55.0 °F - 32.0 °F 42% 29.51 in 10.0 mi WSW 10.4 mph - N/A   Clear
11:53 PM 48.9 °F - 39.9 °F 71% 29.55 in 10.0 mi NE 4.6 mph - N/A   Clear